loading
|

THOR AGENA D R/B, 2255

Orbit data source: Space-Track

THOR AGENA D R/B, 2255 is space debris originally from a launch on Fri, 24 Jun 1966 UTC launched from the Air Force Western Test Range (AFWTR). Debris objects in space refer to the collection of defunct objects orbiting the Earth. Examples of debris include non-operational satellites, rocket bodies, and fragments generated from explosions, collisions, or faulty payload assembly.

Loading next visibility...
Next conjunction unknown
Loading greatness...
THOR AGENA D R/B details
Identifier
2255, 1966-056B
Orbit
Active
Last TLE update11 hours ago
Origin
Flag of USGSFC (US)
ManufacturerLMSC
MissionSpacecraft
Bus & MotorAGENA D, Unknown motor
Mass600 kg wet, 600 kg dry
Launch date (UTC)
1966-06-24 (58 years ago)
Launch vehicleUnknown
Launch site
Air Force Western Test Range (AFWTR)
Object type
Payload
Rocket body
Debris
Shape & HBRCyl + 1 Nozzle, 6.3 m
Radar Cross Section8.306 m², Large (>1 m²)

Expand to show TLE details & history

TLE from 11 hours ago
0 THOR AGENA D R/B
1 02255U 66056B   24285.51555675  .00000032  00000-0  29054-1 0  9993
2 02255  86.9433 233.4609 0049647 246.5254 113.0330  7.94758090691561
Epoch: 2024-10-11T12:22Z
Definitive object data (Epoch: 2024-10-11T12:22:24.103Z)
Latitude0.00005°
Longitude27.27583°
Altitude4,251.41 km
Speed6.118 km/s
True Right ascension15h 33m 50s
True Declination0° 00' 00"
Sunlit
Object was in daylight at TLE epoch
Predictive object data (real-time)
Latitude-74.51043°
Longitude16.16534°
Altitude4,214.772 km
Speed6.148 km/s
Apparent Right ascension08h 34m 35s
Apparent Declination-75° 00' 46"
Sunlit
Object is in daylight
Predictive observer data (real-time)
Local Sidereal Time18:13:31
Azimuth193.854° SSW
Elevation-51.424°
Doppler factor1
Orbital elements
Apogee4,279.117 km
Perigee4,173.82 km
Semi-major axis10,604.606 km
Eccentricity0.0049647
Inclination86.9433°
RAAN233.4609°
Arg. of periapsis246.5254°
True anomaly113.55528°
Mean anomaly113.033°
Eccentric anomaly113.29427°
Mean motion1.98747 °/min
BSTAR0.029054
Period181.13 mins
No data available

THOR AGENA D R/B Visibility forecast

Observer location: 39.9160978°, -105.1181434

Span
Click to sort rows by Start time (UTC) header in descending order
Start Az.
Max El. time (UTC)
Max El. Az.
Max El.
End time (UTC)
End Az.
27 mins2024-10-12 00:41:46.974Z271.155° WNW2024-10-12 00:54:46.974Z310.028° NW17.271°2024-10-12 01:08:46.974Z351.785° N
41 mins2024-10-12 07:19:46.974Z1.77° NNE2024-10-12 07:39:46.974Z75.675° E39.366°2024-10-12 08:00:46.974Z154.503° SSE
38 mins2024-10-12 10:21:46.974Z351.006° N2024-10-12 10:40:46.974Z285.904° WNW35.461°2024-10-12 10:59:46.974Z223.318° SW
33 mins2024-10-12 18:41:46.974Z118.307° SE2024-10-12 18:57:46.974Z66.435° ENE29.167°2024-10-12 19:14:46.974Z11.748° NNE
43 mins2024-10-12 21:35:46.974Z191.442° SSW2024-10-12 21:56:46.974Z280.771° WNW43.413°2024-10-12 22:18:46.974Z1.59° NNE